| time (UTC) | temp F | wind direction | speed MPH | gust MPH | rain 1hr in | rain 24hr in | rain mn in | humidity % | barometer mb |
| 20260903131048 | 68 | 203 | 2.0 | 6.0 | 0.00 | 0.00 | 0.00 | 97 | 1013.9 |
| 20260903130548 | 68 | 205 | 1.0 | 5.0 | 0.00 | 0.00 | 0.00 | 97 | 1013.8 |
| 20260903130050 | 68 | 198 | 2.0 | 7.0 | 0.00 | 0.00 | 0.00 | 97 | 1013.8 |
| 20260903125548 | 68 | 182 | 1.0 | 7.0 | 0.00 | 0.00 | 0.00 | 97 | 1013.9 |
| 20260903125046 | 68 | 184 | 3.0 | 7.0 | 0.00 | 0.00 | 0.00 | 97 | 1014.0 |
| 20260903124545 | 67 | 152 | 2.0 | 6.0 | 0.00 | 0.00 | 0.00 | 97 | 1014.0 |
| 20260903124045 | 67 | 209 | 4.0 | 6.0 | 0.00 | 0.00 | 0.00 | 96 | 1014.0 |
| 20260903123544 | 67 | 155 | 3.0 | 7.0 | 0.00 | 0.00 | 0.00 | 96 | 1014.4 |
| 20260903123044 | 67 | 180 | 2.0 | 5.0 | 0.00 | 0.00 | 0.00 | 96 | 1014.5 |
| 20260903122545 | 67 | 180 | 1.0 | 6.0 | 0.00 | 0.00 | 0.00 | 97 | 1014.6 |
| 20260903122043 | 67 | 178 | 2.0 | 6.0 | 0.00 | 0.00 | 0.00 | 97 | 1014.4 |
| 20260903121542 | 66 | 191 | 2.0 | 6.0 | 0.00 | 0.00 | 0.00 | 96 | 1014.4 |
| 20260903121041 | 66 | 203 | 2.0 | 7.0 | 0.00 | 0.00 | 0.00 | 97 | 1014.4 |
| 20260903120541 | 66 | 170 | 3.0 | 7.0 | 0.00 | 0.00 | 0.00 | 96 | 1014.4 |
| 20260903120053 | 66 | 177 | 2.0 | 7.0 | 0.00 | 0.00 | 0.00 | 96 | 1014.4 |
| 20260903115539 | 66 | 211 | 2.0 | 6.0 | 0.00 | 0.00 | 0.00 | 96 | 1014.4 |
| 20260903115039 | 66 | 223 | 2.0 | 4.0 | 0.00 | 0.00 | 0.00 | 96 | 1014.4 |
| 20260903114539 | 66 | 89 | 0.0 | 2.0 | 0.00 | 0.00 | 0.00 | 96 | 1014.3 |
| 20260903114038 | 66 | 88 | 0.0 | 2.0 | 0.00 | 0.00 | 0.00 | 96 | 1014.4 |
| 20260903113539 | 66 | 88 | 0.0 | 3.0 | 0.00 | 0.00 | 0.00 | 96 | 1014.3 |
| 20260903113043 | 66 | 88 | 1.0 | 3.0 | 0.00 | 0.00 | 0.00 | 96 | 1014.4 |
| 20260903112537 | 65 | 165 | 1.0 | 6.0 | 0.00 | 0.00 | 0.00 | 96 | 1014.3 |
| 20260903112037 | 65 | 165 | 1.0 | 9.0 | 0.00 | 0.00 | 0.00 | 96 | 1014.1 |
| 20260903111536 | 65 | 195 | 3.0 | 8.0 | 0.00 | 0.00 | 0.00 | 96 | 1014.3 |
| 20260903111035 | 65 | 190 | 3.0 | 8.0 | 0.00 | 0.00 | 0.00 | 96 | 1014.4 |
| 20260903110534 | 65 | 180 | 1.0 | 7.0 | 0.00 | 0.00 | 0.00 | 96 | 1014.6 |
| 20260903110034 | 65 | 116 | 1.0 | 7.0 | 0.00 | 0.00 | 0.00 | 96 | 1014.4 |
| 20260903105534 | 65 | 203 | 0.0 | 4.0 | 0.00 | 0.00 | 0.00 | 96 | 1014.5 |
| 20260903105035 | 65 | 203 | 1.0 | 6.0 | 0.00 | 0.00 | 0.00 | 96 | 1014.7 |
| 20260903104533 | 65 | 207 | 1.0 | 5.0 | 0.00 | 0.00 | 0.00 | 96 | 1014.7 |
| 20260903104035 | 65 | 206 | 2.0 | 5.0 | 0.00 | 0.00 | 0.00 | 96 | 1014.6 |
| 20260903103533 | 65 | 154 | 0.0 | 7.0 | 0.00 | 0.00 | 0.00 | 96 | 1014.6 |
| 20260903103033 | 65 | 205 | 1.0 | 6.0 | 0.00 | 0.00 | 0.00 | 96 | 1014.6 |
| 20260903102533 | 65 | 205 | 2.0 | 6.0 | 0.00 | 0.00 | 0.00 | 96 | 1014.4 |
| 20260903102034 | 65 | 235 | 1.0 | 4.0 | 0.00 | 0.00 | 0.00 | 96 | 1014.5 |
| 20260903101543 | 65 | 236 | 0.0 | 5.0 | 0.00 | 0.00 | 0.00 | 96 | 1014.5 |
| 20260903101033 | 65 | 236 | 2.0 | 7.0 | 0.00 | 0.00 | 0.00 | 96 | 1014.5 |
| 20260903100533 | 65 | 225 | 2.0 | 7.0 | 0.00 | 0.00 | 0.00 | 96 | 1014.5 |
| 20260903100035 | 65 | 192 | 3.0 | 7.0 | 0.00 | 0.00 | 0.00 | 96 | 1014.4 |
| 20260903095531 | 65 | 198 | 4.0 | 8.0 | 0.00 | 0.00 | 0.00 | 96 | 1014.4 |
| 20260903095032 | 65 | 196 | 3.0 | 7.0 | 0.00 | 0.00 | 0.00 | 96 | 1014.4 |
| 20260903094531 | 65 | 203 | 2.0 | 5.0 | 0.00 | 0.00 | 0.00 | 96 | 1014.5 |
| 20260903094030 | 65 | 244 | 1.0 | 7.0 | 0.00 | 0.00 | 0.00 | 96 | 1014.4 |
| 20260903093532 | 65 | 249 | 2.0 | 7.0 | 0.00 | 0.00 | 0.00 | 96 | 1014.1 |
| 20260903093039 | 65 | 226 | 3.0 | 7.0 | 0.00 | 0.00 | 0.00 | 96 | 1014.1 |
| 20260903092531 | 65 | 167 | 4.0 | 11.0 | 0.00 | 0.00 | 0.00 | 96 | 1014.1 |
| 20260903092030 | 65 | 175 | 3.0 | 11.0 | 0.00 | 0.00 | 0.00 | 96 | 1014.1 |
| 20260903091530 | 65 | 168 | 3.0 | 9.0 | 0.00 | 0.00 | 0.00 | 96 | 1013.9 |
| 20260903091029 | 65 | 195 | 5.0 | 9.0 | 0.00 | 0.00 | 0.00 | 96 | 1014.1 |
| 20260903090531 | 65 | 150 | 4.0 | 9.0 | 0.00 | 0.00 | 0.00 | 96 | 1014.4 |
| 20260903090028 | 65 | 202 | 5.0 | 7.0 | 0.00 | 0.00 | 0.00 | 96 | 1014.3 |
| 20260903085526 | 65 | 166 | 4.0 | 9.0 | 0.00 | 0.00 | 0.00 | 96 | 1014.4 |
| 20260903085027 | 65 | 186 | 1.0 | 9.0 | 0.00 | 0.00 | 0.00 | 96 | 1014.4 |
| 20260903084532 | 65 | 208 | 2.0 | 7.0 | 0.00 | 0.00 | 0.00 | 96 | 1014.4 |
| 20260903084028 | 65 | 216 | 3.0 | 8.0 | 0.00 | 0.00 | 0.00 | 96 | 1014.2 |
| 20260903083525 | 65 | 169 | 2.0 | 8.0 | 0.00 | 0.00 | 0.00 | 96 | 1014.3 |
| 20260903083027 | 65 | 228 | 2.0 | 9.0 | 0.00 | 0.00 | 0.00 | 96 | 1014.4 |
| 20260903082525 | 65 | 192 | 3.0 | 9.0 | 0.00 | 0.00 | 0.00 | 96 | 1014.4 |
| 20260903082025 | 65 | 208 | 4.0 | 8.0 | 0.00 | 0.00 | 0.00 | 96 | 1014.4 |
| 20260903081525 | 65 | 156 | 3.0 | 8.0 | 0.00 | 0.00 | 0.00 | 96 | 1014.6 |
| 20260903081024 | 65 | 160 | 3.0 | 9.0 | 0.00 | 0.00 | 0.00 | 96 | 1014.6 |
| 20260903080523 | 65 | 188 | 3.0 | 9.0 | 0.00 | 0.00 | 0.00 | 96 | 1014.7 |
| 20260903080037 | 65 | 177 | 3.0 | 9.0 | 0.00 | 0.00 | 0.00 | 96 | 1014.9 |
| 20260903075523 | 65 | 165 | 2.0 | 10.0 | 0.00 | 0.00 | 0.00 | 96 | 1014.8 |
| 20260903075024 | 65 | 164 | 5.0 | 10.0 | 0.00 | 0.00 | 0.00 | 96 | 1014.3 |
| 20260903074522 | 65 | 193 | 3.0 | 13.0 | 0.00 | 0.00 | 0.00 | 96 | 1014.4 |
| 20260903074022 | 65 | 165 | 3.0 | 13.0 | 0.00 | 0.00 | 0.00 | 96 | 1014.4 |
| 20260903073520 | 65 | 163 | 6.0 | 10.0 | 0.00 | 0.00 | 0.00 | 96 | 1014.5 |
| 20260903073024 | 64 | 157 | 3.0 | 11.0 | 0.00 | 0.00 | 0.00 | 96 | 1014.5 |
| 20260903072520 | 64 | 171 | 4.0 | 11.0 | 0.00 | 0.00 | 0.00 | 96 | 1014.5 |
| 20260903072019 | 64 | 171 | 5.0 | 10.0 | 0.00 | 0.00 | 0.00 | 96 | 1014.4 |
| 20260903071519 | 64 | 186 | 5.0 | 9.0 | 0.00 | 0.00 | 0.00 | 96 | 1014.5 |
| 20260903071023 | 64 | 179 | 2.0 | 7.0 | 0.00 | 0.00 | 0.00 | 95 | 1014.6 |
| 20260903070517 | 64 | 159 | 3.0 | 8.0 | 0.00 | 0.00 | 0.00 | 95 | 1014.6 |
| 20260903070018 | 64 | 153 | 3.0 | 8.0 | 0.00 | 0.00 | 0.00 | 95 | 1014.6 |
| 20260903065515 | 64 | 213 | 3.0 | 10.0 | 0.00 | 0.00 | 0.00 | 95 | 1014.8 |
| 20260903065014 | 64 | 169 | 4.0 | 10.0 | 0.00 | 0.00 | 0.00 | 95 | 1015.0 |
| 20260903064514 | 64 | 182 | 4.0 | 7.0 | 0.00 | 0.00 | 0.00 | 95 | 1015.1 |
| 20260903064013 | 64 | 200 | 3.0 | 7.0 | 0.00 | 0.00 | 0.00 | 95 | 1015.3 |
| 20260903063514 | 64 | 142 | 3.0 | 6.0 | 0.00 | 0.00 | 0.00 | 95 | 1015.0 |
| 20260903063013 | 64 | 168 | 2.0 | 7.0 | 0.00 | 0.00 | 0.00 | 95 | 1014.9 |
| 20260903062513 | 64 | 173 | 3.0 | 7.0 | 0.00 | 0.00 | 0.00 | 95 | 1014.9 |
| 20260903062012 | 64 | 193 | 3.0 | 7.0 | 0.00 | 0.00 | 0.00 | 95 | 1015.1 |
| 20260903061514 | 64 | 163 | 4.0 | 6.0 | 0.00 | 0.00 | 0.00 | 95 | 1015.1 |
| 20260903061014 | 64 | 170 | 2.0 | 5.0 | 0.00 | 0.00 | 0.00 | 95 | 1015.1 |
| 20260903060510 | 64 | 190 | 2.0 | 4.0 | 0.00 | 0.00 | 0.00 | 95 | 1015.3 |
| 20260903060008 | 64 | 201 | 1.0 | 3.0 | 0.00 | 0.00 | 0.00 | 95 | 1015.6 |
| 20260903055508 | 64 | 204 | 0.0 | 3.0 | 0.00 | 0.00 | 0.00 | 95 | 1016.0 |
| 20260903055007 | 64 | 204 | 0.0 | 4.0 | 0.00 | 0.00 | 0.00 | 95 | 1016.4 |
| 20260903054511 | 64 | 197 | 0.0 | 5.0 | 0.00 | 0.00 | 0.00 | 95 | 1016.1 |
| 20260903054006 | 64 | 197 | 2.0 | 7.0 | 0.00 | 0.00 | 0.00 | 95 | 1016.1 |
| 20260903053507 | 64 | 205 | 4.0 | 7.0 | 0.00 | 0.00 | 0.00 | 95 | 1016.5 |
| 20260903053006 | 64 | 226 | 2.0 | 9.0 | 0.00 | 0.00 | 0.00 | 95 | 1016.6 |
| 20260903052505 | 64 | 190 | 4.0 | 9.0 | 0.00 | 0.00 | 0.00 | 95 | 1016.2 |
| 20260903052007 | 64 | 192 | 3.0 | 7.0 | 0.00 | 0.00 | 0.00 | 95 | 1016.5 |
| 20260903051506 | 64 | 190 | 2.0 | 5.0 | 0.00 | 0.00 | 0.00 | 95 | 1017.2 |
| 20260903051004 | 64 | 256 | 2.0 | 6.0 | 0.00 | 0.00 | 0.00 | 95 | 1017.3 |
| 20260903050503 | 64 | 228 | 2.0 | 6.0 | 0.00 | 0.00 | 0.00 | 95 | 1017.0 |
| 20260903050010 | 64 | 184 | 1.0 | 6.0 | 0.00 | 0.00 | 0.00 | 95 | 1016.9 |
| 20260903045503 | 64 | 186 | 1.0 | 6.0 | 0.00 | 0.00 | 0.00 | 95 | 1016.8 |
| 20260903045002 | 64 | 163 | 2.0 | 6.0 | 0.00 | 0.00 | 0.00 | 95 | 1016.5 |
| 20260903044503 | 64 | 184 | 2.0 | 4.0 | 0.00 | 0.00 | 0.00 | 95 | 1016.9 |
| 20260903044100 | 64 | 198 | 1.0 | 4.0 | 0.00 | 0.00 | 0.00 | 95 | 1017.3 |
| 20260903043559 | 64 | 186 | 1.0 | 3.0 | 0.00 | 0.00 | 0.00 | 95 | 1017.5 |
| 20260903043059 | 64 | 191 | 1.0 | 6.0 | 0.00 | 0.00 | 0.00 | 95 | 1017.8 |
| 20260903042558 | 64 | 192 | 2.0 | 6.0 | 0.00 | 0.00 | 0.00 | 95 | 1017.9 |
| 20260903042057 | 64 | 161 | 2.0 | 5.0 | 0.00 | 0.00 | 0.00 | 95 | 1017.8 |
| 20260903041610 | 64 | 161 | 1.0 | 5.0 | 0.00 | 0.00 | 0.00 | 95 | 1017.7 |
| 20260903041055 | 64 | 161 | 1.0 | 7.0 | 0.00 | 0.00 | 0.00 | 94 | 1017.9 |
| 20260903040554 | 64 | 151 | 3.0 | 6.0 | 0.00 | 0.00 | 0.00 | 94 | 1018.2 |
| 20260903040103 | 65 | 161 | 3.0 | 6.0 | 0.00 | 0.00 | 0.00 | 94 | 1018.4 |
| 20260903035552 | 65 | 288 | 1.0 | 4.0 | 0.00 | 0.00 | 0.00 | 94 | 1019.1 |
| 20260903035052 | 64 | 279 | 2.0 | 4.0 | 0.00 | 0.00 | 0.00 | 94 | 1019.2 |
| 20260903034552 | 65 | 229 | 1.0 | 3.0 | 0.00 | 0.00 | 0.00 | 94 | 1018.7 |
| 20260903034053 | 65 | 223 | 0.0 | 3.0 | 0.00 | 0.00 | 0.00 | 94 | 1018.3 |
| 20260903033551 | 64 | 223 | 0.0 | 3.0 | 0.00 | 0.00 | 0.00 | 94 | 1018.4 |
| 20260903033051 | 65 | 223 | 0.0 | 2.0 | 0.00 | 0.00 | 0.00 | 94 | 1018.3 |
| 20260903032551 | 65 | 223 | 1.0 | 3.0 | 0.00 | 0.00 | 0.00 | 94 | 1018.2 |
| 20260903032053 | 65 | 223 | 1.0 | 3.0 | 0.00 | 0.00 | 0.00 | 94 | 1017.9 |
| 20260903031552 | 65 | 223 | 1.0 | 4.0 | 0.00 | 0.00 | 0.00 | 94 | 1017.8 |
| 20260903031052 | 65 | 223 | 1.0 | 4.0 | 0.00 | 0.00 | 0.00 | 94 | 1017.9 |
| 20260903030550 | 65 | 216 | 1.0 | 3.0 | 0.00 | 0.00 | 0.00 | 94 | 1018.2 |
| 20260903030050 | 65 | 215 | 0.0 | 2.0 | 0.00 | 0.00 | 0.00 | 94 | 1018.1 |
| 20260903025549 | 65 | 215 | 0.0 | 3.0 | 0.00 | 0.00 | 0.00 | 94 | 1017.9 |
| 20260903025052 | 65 | 215 | 1.0 | 3.0 | 0.00 | 0.00 | 0.00 | 94 | 1017.9 |
| 20260903024549 | 65 | 215 | 0.0 | 4.0 | 0.00 | 0.00 | 0.00 | 94 | 1018.1 |
| 20260903024047 | 65 | 215 | 1.0 | 5.0 | 0.00 | 0.00 | 0.00 | 94 | 1018.1 |
| 20260903023547 | 65 | 215 | 2.0 | 5.0 | 0.00 | 0.00 | 0.00 | 94 | 1018.4 |
| 20260903023046 | 65 | 233 | 2.0 | 5.0 | 0.00 | 0.00 | 0.00 | 94 | 1018.4 |
| 20260903022548 | 65 | 233 | 2.0 | 5.0 | 0.00 | 0.00 | 0.00 | 94 | 1018.6 |
| 20260903022046 | 65 | 235 | 2.0 | 4.0 | 0.00 | 0.00 | 0.00 | 94 | 1018.5 |
| 20260903021546 | 65 | 235 | 1.0 | 4.0 | 0.00 | 0.00 | 0.00 | 94 | 1018.7 |
| 20260903021045 | 65 | 236 | 0.0 | 4.0 | 0.00 | 0.00 | 0.00 | 94 | 1018.9 |
| 20260903020545 | 65 | 194 | 1.0 | 4.0 | 0.00 | 0.00 | 0.00 | 94 | 1019.1 |
| 20260903020045 | 65 | 193 | 1.0 | 7.0 | 0.00 | 0.00 | 0.00 | 94 | 1019.3 |
| 20260903015544 | 65 | 259 | 1.0 | 7.0 | 0.00 | 0.00 | 0.00 | 94 | 1019.5 |
| 20260903015044 | 65 | 203 | 2.0 | 4.0 | 0.00 | 0.00 | 0.00 | 94 | 1019.3 |
| 20260903014544 | 65 | 203 | 1.0 | 4.0 | 0.00 | 0.00 | 0.00 | 93 | 1019.4 |
| 20260903014047 | 65 | 204 | 0.0 | 2.0 | 0.00 | 0.00 | 0.00 | 93 | 1019.4 |
| 20260903013544 | 65 | 204 | 0.0 | 4.0 | 0.00 | 0.00 | 0.00 | 93 | 1019.2 |
| 20260903013044 | 65 | 204 | 1.0 | 4.0 | 0.00 | 0.00 | 0.00 | 93 | 1019.3 |
| 20260903012543 | 65 | 211 | 0.0 | 2.0 | 0.00 | 0.00 | 0.00 | 93 | 1019.1 |
| 20260903012043 | 65 | 211 | 0.0 | 2.0 | 0.00 | 0.00 | 0.00 | 93 | 1019.0 |
| 20260903011550 | 65 | 211 | 0.0 | 4.0 | 0.00 | 0.00 | 0.00 | 93 | 1019.2 |
| 20260903011045 | 65 | 192 | 0.0 | 4.0 | 0.00 | 0.00 | 0.00 | 93 | 1019.0 |
| 20260903010546 | 65 | 249 | 1.0 | 4.0 | 0.00 | 0.00 | 0.00 | 93 | 1019.0 |
| 20260903010045 | 65 | 249 | 1.0 | 4.0 | 0.00 | 0.00 | 0.00 | 93 | 1019.1 |
| 20260903005543 | 65 | 252 | 1.0 | 3.0 | 0.00 | 0.00 | 0.00 | 93 | 1019.1 |
| 20260903005045 | 65 | 252 | 1.0 | 3.0 | 0.00 | 0.00 | 0.00 | 93 | 1019.1 |
| 20260903004543 | 65 | 214 | 2.0 | 4.0 | 0.00 | 0.00 | 0.00 | 93 | 1019.0 |
| 20260903004042 | 65 | 195 | 1.0 | 5.0 | 0.00 | 0.00 | 0.00 | 93 | 1018.9 |
| 20260903003542 | 65 | 196 | 2.0 | 6.0 | 0.00 | 0.00 | 0.00 | 93 | 1018.8 |
| 20260903003042 | 65 | 200 | 3.0 | 6.0 | 0.00 | 0.00 | 0.00 | 93 | 1018.7 |
| 20260903002542 | 65 | 173 | 3.0 | 7.0 | 0.00 | 0.00 | 0.00 | 93 | 1018.7 |
| 20260903002041 | 65 | 171 | 3.0 | 7.0 | 0.00 | 0.00 | 0.00 | 93 | 1018.7 |
| 20260903001557 | 65 | 154 | 1.0 | 5.0 | 0.00 | 0.00 | 0.00 | 92 | 1018.6 |
| 20260903001041 | 65 | 153 | 2.0 | 5.0 | 0.00 | 0.00 | 0.00 | 92 | 1018.7 |
| 20260903000541 | 65 | 153 | 0.0 | 3.0 | 0.00 | 0.00 | 0.00 | 92 | 1019.0 |
| 20260903000041 | 65 | 153 | 0.0 | 2.0 | 0.00 | 0.00 | 0.00 | 92 | 1019.0 |
| 20260902235540 | 65 | 153 | 1.0 | 3.0 | 0.00 | 0.00 | 0.00 | 92 | 1019.0 |
| 20260902235040 | 65 | 153 | 1.0 | 3.0 | 0.00 | 0.00 | 0.00 | 92 | 1018.9 |
| 20260902234544 | 65 | 153 | 0.0 | 2.0 | 0.00 | 0.00 | 0.00 | 92 | 1018.9 |
| 20260902234040 | 65 | 153 | 0.0 | 2.0 | 0.00 | 0.00 | 0.00 | 92 | 1019.1 |
| 20260902233540 | 65 | 153 | 0.0 | 3.0 | 0.00 | 0.00 | 0.00 | 92 | 1019.1 |
| 20260902233039 | 65 | 153 | 1.0 | 3.0 | 0.00 | 0.00 | 0.00 | 92 | 1019.1 |
| 20260902232540 | 65 | 153 | 1.0 | 5.0 | 0.00 | 0.00 | 0.00 | 92 | 1019.1 |
| 20260902232039 | 65 | 153 | 1.0 | 5.0 | 0.00 | 0.00 | 0.00 | 92 | 1019.0 |
| 20260902231541 | 65 | 153 | 0.0 | 3.0 | 0.00 | 0.00 | 0.00 | 92 | 1018.8 |
| 20260902231040 | 65 | 153 | 0.0 | 3.0 | 0.00 | 0.00 | 0.00 | 92 | 1019.1 |
| 20260902230540 | 65 | 153 | 0.0 | 2.0 | 0.00 | 0.00 | 0.00 | 92 | 1019.0 |
| 20260902230039 | 66 | 153 | 0.0 | 3.0 | 0.00 | 0.00 | 0.00 | 92 | 1019.0 |
| 20260902225539 | 66 | 153 | 1.0 | 3.0 | 0.00 | 0.00 | 0.00 | 92 | 1019.3 |
| 20260902225039 | 66 | 153 | 0.0 | 0.0 | 0.00 | 0.00 | 0.00 | 92 | 1019.3 |
| 20260902224547 | 66 | 153 | 0.0 | 2.0 | 0.00 | 0.00 | 0.00 | 92 | 1019.4 |
| 20260902224038 | 66 | 153 | 0.0 | 3.0 | 0.00 | 0.00 | 0.00 | 92 | 1019.5 |
| 20260902223538 | 66 | 153 | 0.0 | 3.0 | 0.00 | 0.00 | 0.00 | 92 | 1019.5 |
| 20260902223038 | 66 | 153 | 0.0 | 0.0 | 0.00 | 0.00 | 0.00 | 92 | 1019.6 |
| 20260902222538 | 66 | 153 | 0.0 | 2.0 | 0.00 | 0.00 | 0.00 | 92 | 1019.4 |
| 20260902222048 | 66 | 153 | 0.0 | 2.0 | 0.00 | 0.00 | 0.00 | 92 | 1019.6 |
| 20260902221544 | 66 | 153 | 0.0 | 5.0 | 0.00 | 0.00 | 0.00 | 92 | 1019.7 |
| 20260902221037 | 66 | 153 | 0.0 | 5.0 | 0.00 | 0.00 | 0.00 | 92 | 1019.6 |
| 20260902220537 | 66 | 153 | 0.0 | 0.0 | 0.00 | 0.00 | 0.00 | 92 | 1019.6 |
| 20260902220050 | 66 | 153 | 0.0 | 4.0 | 0.00 | 0.00 | 0.00 | 92 | 1019.6 |
| 20260902215536 | 66 | 153 | 1.0 | 4.0 | 0.00 | 0.00 | 0.00 | 92 | 1019.7 |
| 20260902215038 | 66 | 118 | 0.0 | 1.0 | 0.00 | 0.00 | 0.00 | 92 | 1019.8 |
| 20260902214536 | 66 | 118 | 0.0 | 4.0 | 0.00 | 0.00 | 0.00 | 92 | 1019.8 |
| 20260902214038 | 66 | 118 | 2.0 | 4.0 | 0.00 | 0.00 | 0.00 | 92 | 1019.7 |
| 20260902213536 | 66 | 117 | 0.0 | 2.0 | 0.00 | 0.00 | 0.00 | 92 | 1019.7 |
| 20260902213045 | 66 | 117 | 0.0 | 3.0 | 0.00 | 0.00 | 0.00 | 92 | 1019.7 |
| 20260902212536 | 66 | 117 | 0.0 | 3.0 | 0.00 | 0.00 | 0.00 | 92 | 1019.7 |
| 20260902212036 | 66 | 117 | 1.0 | 4.0 | 0.00 | 0.00 | 0.00 | 92 | 1019.6 |
| 20260902211536 | 66 | 117 | 0.0 | 4.0 | 0.00 | 0.00 | 0.00 | 92 | 1019.6 |
| 20260902211035 | 66 | 107 | 0.0 | 3.0 | 0.00 | 0.00 | 0.00 | 92 | 1019.6 |
| 20260902210536 | 66 | 107 | 0.0 | 3.0 | 0.00 | 0.00 | 0.00 | 92 | 1019.7 |
| 20260902210035 | 66 | 107 | 0.0 | 3.0 | 0.00 | 0.00 | 0.00 | 92 | 1019.6 |
| 20260902205534 | 66 | 103 | 0.0 | 4.0 | 0.00 | 0.00 | 0.00 | 93 | 1019.6 |
| 20260902205035 | 66 | 68 | 0.0 | 3.0 | 0.00 | 0.00 | 0.00 | 93 | 1019.5 |
| 20260902204535 | 67 | 68 | 0.0 | 3.0 | 0.00 | 0.00 | 0.00 | 93 | 1019.7 |
| 20260902204035 | 67 | 67 | 0.0 | 2.0 | 0.00 | 0.00 | 0.00 | 93 | 1020.0 |
| 20260902203534 | 67 | 67 | 1.0 | 2.0 | 0.00 | 0.00 | 0.00 | 93 | 1019.8 |
| 20260902203034 | 66 | 67 | 0.0 | 3.0 | 0.00 | 0.00 | 0.00 | 93 | 1019.7 |
| 20260902202534 | 66 | 67 | 0.0 | 3.0 | 0.00 | 0.00 | 0.00 | 93 | 1019.8 |
| 20260902202034 | 66 | 67 | 0.0 | 2.0 | 0.00 | 0.00 | 0.00 | 93 | 1019.8 |
| 20260902201533 | 66 | 67 | 0.0 | 4.0 | 0.00 | 0.00 | 0.00 | 93 | 1019.7 |
| 20260902201036 | 66 | 65 | 1.0 | 4.0 | 0.00 | 0.00 | 0.00 | 93 | 1019.5 |
| 20260902200533 | 66 | 66 | 0.0 | 3.0 | 0.00 | 0.00 | 0.00 | 93 | 1019.5 |
| 20260902200033 | 66 | 66 | 1.0 | 3.0 | 0.00 | 0.00 | 0.00 | 93 | 1019.5 |
| 20260902195533 | 66 | 172 | 0.0 | 6.0 | 0.00 | 0.00 | 0.00 | 93 | 1019.5 |
| 20260902195033 | 66 | 169 | 3.0 | 6.0 | 0.00 | 0.00 | 0.00 | 93 | 1019.6 |
| 20260902194541 | 66 | 195 | 2.0 | 7.0 | 0.00 | 0.00 | 0.00 | 93 | 1019.5 |
| 20260902194033 | 66 | 181 | 1.0 | 6.0 | 0.00 | 0.00 | 0.00 | 93 | 1019.5 |
| 20260902193532 | 67 | 191 | 2.0 | 6.0 | 0.00 | 0.00 | 0.00 | 93 | 1019.8 |
| 20260902193031 | 66 | 210 | 0.0 | 3.0 | 0.00 | 0.00 | 0.00 | 93 | 1019.9 |
| 20260902192531 | 66 | 211 | 1.0 | 4.0 | 0.00 | 0.00 | 0.00 | 93 | 1019.8 |
| 20260902192030 | 66 | 211 | 1.0 | 6.0 | 0.00 | 0.00 | 0.00 | 93 | 1020.0 |
| 20260902191631 | 66 | 214 | 2.0 | 6.0 | 0.00 | 0.00 | 0.00 | 93 | 1019.9 |
| 20260902191030 | 66 | 186 | 1.0 | 7.0 | 0.00 | 0.00 | 0.00 | 93 | 1019.9 |
| 20260902190529 | 66 | 155 | 2.0 | 9.0 | 0.00 | 0.00 | 0.00 | 93 | 1019.9 |
| 20260902190047 | 66 | 193 | 2.0 | 9.0 | 0.00 | 0.00 | 0.00 | 93 | 1020.1 |
| 20260902185630 | 66 | 202 | 3.0 | 7.0 | 0.00 | 0.00 | 0.00 | 93 | 1020.1 |
| 20260902185031 | 66 | 277 | 1.0 | 4.0 | 0.00 | 0.00 | 0.00 | 93 | 1020.3 |
| 20260902184527 | 66 | 221 | 1.0 | 4.0 | 0.00 | 0.00 | 0.00 | 93 | 1020.2 |
| 20260902184026 | 66 | 147 | 2.0 | 7.0 | 0.00 | 0.00 | 0.00 | 93 | 1020.1 |
| 20260902183526 | 66 | 223 | 2.0 | 5.0 | 0.00 | 0.00 | 0.00 | 93 | 1020.1 |
| 20260902183026 | 66 | 207 | 2.0 | 5.0 | 0.00 | 0.00 | 0.00 | 93 | 1020.2 |
| 20260902182529 | 66 | 180 | 1.0 | 3.0 | 0.00 | 0.00 | 0.00 | 92 | 1019.8 |
| 20260902182023 | 65 | 184 | 1.0 | 3.0 | 0.00 | 0.00 | 0.00 | 92 | 1020.1 |
| 20260902181523 | 65 | 184 | 2.0 | 3.0 | 0.00 | 0.00 | 0.00 | 92 | 1020.3 |
| 20260902181023 | 65 | 184 | 0.0 | 6.0 | 0.00 | 0.00 | 0.00 | 92 | 1020.3 |
| 20260902180526 | 65 | 244 | 0.0 | 3.0 | 0.00 | 0.00 | 0.00 | 92 | 1020.4 |
| 20260902180032 | 65 | 265 | 0.0 | 2.0 | 0.00 | 0.00 | 0.00 | 91 | 1020.6 |
| 20260902175522 | 65 | 265 | 0.0 | 1.0 | 0.00 | 0.00 | 0.00 | 91 | 1020.9 |
| 20260902175025 | 65 | 265 | 0.0 | 0.0 | 0.00 | 0.00 | 0.00 | 91 | 1021.0 |
| 20260902174521 | 65 | 265 | 0.0 | 1.0 | 0.00 | 0.00 | 0.00 | 91 | 1021.0 |
| 20260902174021 | 65 | 265 | 0.0 | 1.0 | 0.00 | 0.00 | 0.00 | 90 | 1021.1 |
| 20260902173521 | 65 | 265 | 0.0 | 0.0 | 0.00 | 0.00 | 0.00 | 90 | 1021.3 |
| 20260902173030 | 65 | 265 | 0.0 | 3.0 | 0.00 | 0.00 | 0.00 | 89 | 1021.4 |
| 20260902172526 | 65 | 265 | 1.0 | 3.0 | 0.00 | 0.00 | 0.00 | 89 | 1021.6 |
| 20260902172020 | 65 | 239 | 1.0 | 3.0 | 0.00 | 0.00 | 0.00 | 89 | 1021.5 |
| 20260902171520 | 65 | 224 | 1.0 | 3.0 | 0.00 | 0.00 | 0.00 | 88 | 1021.3 |
| 20260902171020 | 65 | 224 | 0.0 | 2.0 | 0.00 | 0.00 | 0.00 | 88 | 1021.1 |
| 20260902170520 | 65 | 224 | 0.0 | 0.0 | 0.00 | 0.00 | 0.00 | 88 | 1021.0 |
| 20260902170019 | 65 | 224 | 0.0 | 3.0 | 0.00 | 0.00 | 0.00 | 88 | 1021.0 |
| 20260902165520 | 65 | 224 | 1.0 | 3.0 | 0.00 | 0.00 | 0.00 | 88 | 1021.1 |
| 20260902165019 | 65 | 224 | 1.0 | 4.0 | 0.00 | 0.00 | 0.00 | 88 | 1021.0 |
| 20260902164520 | 65 | 224 | 2.0 | 7.0 | 0.00 | 0.00 | 0.00 | 88 | 1021.2 |
| 20260902164022 | 65 | 222 | 3.0 | 7.0 | 0.00 | 0.00 | 0.00 | 88 | 1021.2 |
| 20260902163517 | 65 | 160 | 2.0 | 5.0 | 0.00 | 0.00 | 0.00 | 88 | 1021.2 |
| 20260902163018 | 65 | 158 | 0.0 | 3.0 | 0.00 | 0.00 | 0.00 | 89 | 1021.0 |
| 20260902162517 | 65 | 158 | 1.0 | 5.0 | 0.00 | 0.00 | 0.00 | 89 | 1021.1 |
| 20260902162019 | 65 | 158 | 1.0 | 5.0 | 0.00 | 0.00 | 0.00 | 89 | 1021.2 |
| 20260902161528 | 65 | 157 | 0.0 | 3.0 | 0.00 | 0.00 | 0.00 | 89 | 1021.3 |
| 20260902161016 | 65 | 156 | 1.0 | 3.0 | 0.00 | 0.00 | 0.00 | 89 | 1021.4 |
| 20260902160515 | 65 | 156 | 1.0 | 3.0 | 0.00 | 0.00 | 0.00 | 89 | 1021.2 |
| 20260902160015 | 65 | 156 | 0.0 | 3.0 | 0.00 | 0.00 | 0.00 | 90 | 1020.9 |
| 20260902155515 | 65 | 156 | 0.0 | 3.0 | 0.00 | 0.00 | 0.00 | 90 | 1020.9 |
| 20260902155015 | 65 | 156 | 0.0 | 3.0 | 0.00 | 0.00 | 0.00 | 90 | 1020.9 |
| 20260902154514 | 65 | 156 | 0.0 | 1.0 | 0.00 | 0.00 | 0.00 | 90 | 1020.8 |
| 20260902154020 | 65 | 156 | 0.0 | 3.0 | 0.00 | 0.00 | 0.00 | 90 | 1020.7 |
| 20260902153514 | 65 | 156 | 0.0 | 3.0 | 0.00 | 0.00 | 0.00 | 90 | 1020.9 |
| 20260902153015 | 65 | 156 | 1.0 | 5.0 | 0.00 | 0.00 | 0.00 | 91 | 1020.9 |
| 20260902152513 | 65 | 154 | 1.0 | 5.0 | 0.00 | 0.00 | 0.00 | 91 | 1021.0 |
| 20260902152014 | 65 | 154 | 1.0 | 3.0 | 0.00 | 0.00 | 0.00 | 91 | 1020.9 |
| 20260902151515 | 65 | 154 | 0.0 | 5.0 | 0.00 | 0.00 | 0.00 | 91 | 1020.9 |
| 20260902151013 | 64 | 164 | 2.0 | 5.0 | 0.00 | 0.00 | 0.00 | 91 | 1021.0 |
| 20260902150515 | 64 | 164 | 0.0 | 5.0 | 0.00 | 0.00 | 0.00 | 92 | 1020.9 |
| 20260902150013 | 64 | 217 | 2.0 | 4.0 | 0.00 | 0.00 | 0.00 | 92 | 1021.0 |
| 20260902145513 | 64 | 218 | 1.0 | 6.0 | 0.00 | 0.00 | 0.00 | 92 | 1021.1 |
| 20260902145012 | 64 | 205 | 2.0 | 6.0 | 0.00 | 0.00 | 0.00 | 93 | 1021.1 |
| 20260902144519 | 64 | 207 | 1.0 | 3.0 | 0.00 | 0.00 | 0.00 | 93 | 1021.1 |
| 20260902144012 | 64 | 175 | 0.0 | 4.0 | 0.00 | 0.00 | 0.00 | 93 | 1021.2 |
| 20260902143512 | 64 | 175 | 2.0 | 4.0 | 0.00 | 0.00 | 0.00 | 93 | 1021.4 |
| 20260902143012 | 64 | 175 | 1.0 | 4.0 | 0.00 | 0.00 | 0.00 | 93 | 1021.4 |
| 20260902142512 | 63 | 175 | 0.0 | 4.0 | 0.00 | 0.00 | 0.00 | 93 | 1021.5 |
| 20260902142012 | 63 | 175 | 1.0 | 4.0 | 0.00 | 0.00 | 0.00 | 93 | 1021.4 |
| 20260902141511 | 63 | 170 | 2.0 | 4.0 | 0.00 | 0.00 | 0.00 | 93 | 1021.4 |
| 20260902141011 | 63 | 165 | 1.0 | 3.0 | 0.00 | 0.00 | 0.00 | 93 | 1021.3 |
| 20260902140511 | 63 | 165 | 0.0 | 3.0 | 0.00 | 0.00 | 0.00 | 93 | 1021.2 |
| 20260902140011 | 63 | 165 | 1.0 | 6.0 | 0.00 | 0.00 | 0.00 | 93 | 1021.2 |
| 20260902135511 | 63 | 165 | 2.0 | 6.0 | 0.00 | 0.00 | 0.00 | 94 | 1021.2 |
| 20260902135010 | 63 | 157 | 1.0 | 5.0 | 0.00 | 0.00 | 0.00 | 94 | 1021.2 |
| 20260902134511 | 63 | 157 | 0.0 | 5.0 | 0.00 | 0.00 | 0.00 | 94 | 1021.3 |
| 20260902134109 | 63 | 157 | 3.0 | 5.0 | 0.00 | 0.00 | 0.00 | 94 | 1021.3 |
| 20260902133509 | 63 | 296 | 2.0 | 4.0 | 0.00 | 0.00 | 0.00 | 94 | 1021.5 |
| 20260902133009 | 63 | 155 | 0.0 | 3.0 | 0.00 | 0.00 | 0.00 | 94 | 1021.3 |
| 20260902132510 | 63 | 155 | 1.0 | 3.0 | 0.00 | 0.00 | 0.00 | 94 | 1021.1 |
| 20260902132007 | 62 | 156 | 0.0 | 3.0 | 0.00 | 0.00 | 0.00 | 94 | 1021.1 |
| 20260902131508 | 62 | 156 | 1.0 | 3.0 | 0.00 | 0.00 | 0.00 | 94 | 1021.2 |